Terminal Aerodrome Forecast
Issued by NWS Portland, OR

Home | Current Version | Previous Version | Text Only | Print | Product List | Glossary On
Versions: 1 2 3 4 5 6 7 8 9 10 11 12 13 14 15 16 17 18 19 20 21 22 23 24 25 26 27 28 29 30 31 32 33 34 35 36 37 38 39 40 41 42 43 44
000
FTUS46 KPQR 011136
TAFAST
TAF
KAST 011136Z 0112/0212 VRB03KT 5SM BR VCSH SCT030 OVC050
     FM011400 00000KT 4SM BR SCT007
     FM011800 32006KT P6SM BKN050
     FM012200 31009KT P6SM BKN100
     FM020900 VRB02KT 5SM BR SCT010 BKN050=

USA.gov is the U.S. government's official web portal to all federal, state and local government web resources and services.